CW2474 Weather Reports


Display with metric or nautical units.
time (UTC)temp
F
wind
direction
speed
MPH
gust
MPH
rain 1hr
in
rain 24hr
in
rain mn
in
humidity
%
barometer
mb
20220519044019 63 123 0.0 0.0 0.00 0.00 0.00 35 997.9
20220519043034 64 123 0.0 0.0 0.00 0.00 0.00 36 997.9
20220519040036 66 145 1.0 0.0 0.00 0.00 0.00 34 998.8
20220519033023 67 143 0.0 0.0 0.00 0.00 0.00 31 999.3
20220519032032 68 143 0.0 0.0 0.00 0.00 0.00 31 998.9
20220519031023 69 143 2.0 0.0 0.00 0.00 0.00 30 1000.0
20220519030028 70 143 2.0 0.0 0.00 0.00 0.00 28 1000.0
20220519025027 71 143 4.0 0.0 0.00 0.00 0.00 27 999.5
20220519023038 73 131 6.0 0.0 0.00 0.00 0.00 26 998.9
20220519022029 75 134 4.0 0.0 0.00 0.00 0.00 23 998.4
20220519015032 79 321 0.0 0.0 0.00 0.00 0.00 11 998.2
20220519014019 80 321 0.0 0.0 0.00 0.00 0.00 12 998.0
20220519005035 81 311 0.0 0.0 0.00 0.00 0.00 10 998.3
20220519004022 81 298 3.0 0.0 0.00 0.00 0.00 10 998.0
20220519003030 82 309 2.0 0.0 0.00 0.00 0.00 10 998.0
20220519002037 82 322 3.0 0.0 0.00 0.00 0.00 10 998.1
20220519001026 82 306 3.0 0.0 0.00 0.00 0.00 9 998.3
20220519000021 83 309 4.0 0.0 0.00 0.00 0.00 9 998.3
20220518234027 83 312 4.0 0.0 0.00 0.00 0.00 8 998.8
20220518233031 83 333 3.0 0.0 0.00 0.00 0.00 8 998.8
20220518232040 83 306 2.0 0.0 0.00 0.00 0.00 9 998.9
20220518230039 84 308 3.0 0.0 0.00 0.00 0.00 9 998.6
20220518224028 84 198 2.0 0.0 0.00 0.00 0.00 10 999.1
20220518223034 84 316 4.0 0.0 0.00 0.00 0.00 9 999.1
20220518220036 84 311 3.0 0.0 0.00 0.00 0.00 10 999.6
20220518215027 84 299 6.0 0.0 0.00 0.00 0.00 8 999.8
20220518213023 84 330 4.0 0.0 0.00 0.00 0.00 9 999.8
20220518212029 84 309 2.0 0.0 0.00 0.00 0.00 10 999.9
20220518211019 84 323 2.0 0.0 0.00 0.00 0.00 12 999.6
20220518210027 83 325 2.0 0.0 0.00 0.00 0.00 11 999.6
20220518205033 84 335 3.0 0.0 0.00 0.00 0.00 15 999.6
20220518204040 83 298 2.0 0.0 0.00 0.00 0.00 15 1000.2
20220518203027 82 243 0.0 0.0 0.00 0.00 0.00 15 1000.2
20220518202033 82 306 2.0 0.0 0.00 0.00 0.00 14 1000.5
20220518200031 81 308 1.0 0.0 0.00 0.00 0.00 20 1000.0
20220518192031 80 162 1.0 0.0 0.00 0.00 0.00 25 1001.4
20220518190029 80 340 1.0 0.0 0.00 0.00 0.00 20 1001.2
20220518183027 78 6 0.0 0.0 0.00 0.00 0.00 22 1002.0
20220518180034 78 129 0.0 0.0 0.00 0.00 0.00 27 1002.5
20220518174026 77 129 0.0 0.0 0.00 0.00 0.00 26 1003.4
20220518173037 76 328 1.0 0.0 0.00 0.00 0.00 22 1003.4
20220518172024 76 346 0.0 0.0 0.00 0.00 0.00 25 1003.5
20220518171029 75 333 1.0 0.0 0.00 0.00 0.00 25 1003.9
20220518165027 74 309 0.0 0.0 0.00 0.00 0.00 28 1004.2
20220518164032 73 325 1.0 0.0 0.00 0.00 0.00 31 1004.6
20220518163018 73 141 0.0 0.0 0.00 0.00 0.00 30 1004.6
20220518161031 70 95 0.0 0.0 0.00 0.00 0.00 43 1005.3
20220518155023 66 289 0.0 0.0 0.00 0.00 0.00 45 1005.7
20220518153030 63 297 0.0 0.0 0.00 0.00 0.00 56 1006.2
20220518151031 61 297 0.0 0.0 0.00 0.00 0.00 58 1006.4
20220518150038 60 297 0.0 0.0 0.00 0.00 0.00 59 1006.4
20220518143021 58 299 0.0 0.0 0.00 0.00 0.00 65 1007.0
20220518142028 57 299 0.0 0.0 0.00 0.00 0.00 68 1007.2
20220518141032 56 299 0.0 0.0 0.00 0.00 0.00 69 1006.8
20220518140037 56 299 0.0 0.0 0.00 0.00 0.00 70 1006.8
20220518135023 55 299 0.0 0.0 0.00 0.00 0.00 70 1007.1
20220518133035 55 299 0.0 0.0 0.00 0.00 0.00 70 1006.9
20220518132025 54 299 0.0 0.0 0.00 0.00 0.00 70 1006.9
20220518131029 54 299 0.0 0.0 0.00 0.00 0.00 69 1006.3
20220518125027 55 299 0.0 0.0 0.00 0.00 0.00 66 1006.3
20220518123027 55 299 0.0 0.0 0.00 0.00 0.00 66 1006.0
20220518122031 55 299 0.0 0.0 0.00 0.00 0.00 67 1005.9
20220518121038 55 299 0.0 0.0 0.00 0.00 0.00 66 1005.6
20220518120022 55 299 0.0 0.0 0.00 0.00 0.00 65 1005.6
20220518114021 55 299 0.0 0.0 0.00 0.00 0.00 65 1005.9
20220518110035 56 299 0.0 0.0 0.00 0.00 0.00 63 1005.3
20220518105021 56 294 0.0 0.0 0.00 0.00 0.00 62 1005.6
20220518104027 56 299 0.0 0.0 0.00 0.00 0.00 62 1005.4
20220518103033 56 299 0.0 0.0 0.00 0.00 0.00 61 1005.4
20220518102022 56 299 0.0 0.0 0.00 0.00 0.00 61 1005.2
20220518095027 56 299 0.0 0.0 0.00 0.00 0.00 58 1003.8
20220518094031 57 299 0.0 0.0 0.00 0.00 0.00 58 1003.4
20220518093024 58 299 0.0 0.0 0.00 0.00 0.00 55 1003.4
20220518092028 58 299 0.0 0.0 0.00 0.00 0.00 54 1003.1
20220518091035 59 299 0.0 0.0 0.00 0.00 0.00 54 1003.1
20220518090027 59 299 0.0 0.0 0.00 0.00 0.00 53 1003.1
20220518085035 60 299 1.0 0.0 0.00 0.00 0.00 52 1002.5
20220518083040 61 185 0.0 0.0 0.00 0.00 0.00 48 1002.2
20220518082026 62 185 0.0 0.0 0.00 0.00 0.00 43 1002.0
20220518081036 63 185 0.0 0.0 0.00 0.00 0.00 38 1001.6
20220518080025 63 185 0.0 0.0 0.00 0.00 0.00 35 1001.6
20220518075031 63 181 0.0 0.0 0.00 0.00 0.00 32 1001.6
20220518074023 63 162 0.0 0.0 0.00 0.00 0.00 32 1001.9
20220518073027 63 186 1.0 0.0 0.00 0.00 0.00 32 1001.9
20220518072033 63 208 0.0 0.0 0.00 0.00 0.00 33 1001.7
20220518063037 63 177 0.0 0.0 0.00 0.00 0.00 35 1001.5
20220518060022 63 150 0.0 0.0 0.00 0.00 0.00 38 1002.1
20220518054033 62 150 1.0 0.0 0.00 0.00 0.00 40 1002.6
20220518053038 62 134 2.0 0.0 0.00 0.00 0.00 43 1002.6
20220518052030 61 138 3.0 0.0 0.00 0.00 0.00 44 1003.2
20220518045035 61 105 0.0 0.0 0.00 0.00 0.00 45 1003.6